When you browse on this site, cookies collect data to enhance your experience and personalize the content and advertising you see.
Visit our Privacy Policy to learn more. By continuing to use the site, you agree to this use of cookies and data.
  • In Germany
  • List of Countries
  • For 7 days
  • Water Temperature
  • Satellite Maps
  • Weather Map
  • Weather Widgets
  • user-avatar
    Login

    Hourly Weather Nordhorn

    Today, 17 November, Saturday

    Time Temperature Precipitation Wind Pressure Humidity
    00:00 +3°C° 0 mm 3 mps 771 mmHg 81%
    01:00 +1°C° 0 mm 4 mps 771 mmHg 82%
    02:00 +1°C° 0 mm 4 mps 772 mmHg 84%
    03:00 +1°C° 0 mm 4 mps 772 mmHg 85%
    04:00 +1°C° 0 mm 4 mps 772 mmHg 86%
    05:00 0°C° 0 mm 4 mps 772 mmHg 87%
    06:00 0°C° 0 mm 4 mps 772 mmHg 88%
    07:00 +1°C° 0 mm 5 mps 772 mmHg 84%
    08:00 +2°C° 0 mm 5 mps 772 mmHg 80%
    09:00 +2°C° 0 mm 5 mps 773 mmHg 76%
    10:00 +3°C° 0 mm 5 mps 773 mmHg 70%
    11:00 +6°C° 0 mm 5 mps 773 mmHg 65%
    12:00 +7°C° 0 mm 5 mps 773 mmHg 59%
    13:00 +7°C° 0 mm 5 mps 772 mmHg 60%
    14:00 +6°C° 0 mm 5 mps 772 mmHg 61%
    15:00 +6°C° 0 mm 4 mps 772 mmHg 63%
    16:00 +5°C° 0 mm 5 mps 772 mmHg 64%
    17:00 +3°C° 0 mm 5 mps 772 mmHg 65%
    18:00 +2°C° 0 mm 5 mps 772 mmHg 66%
    19:00 +2°C° 0 mm 5 mps 773 mmHg 65%
    20:00 +2°C° 0 mm 5 mps 773 mmHg 63%
    21:00 +1°C° 0 mm 5 mps 773 mmHg 61%
    22:00 +1°C° 0 mm 5 mps 773 mmHg 61%
    23:00 0°C° 0 mm 5 mps 773 mmHg 60%

    Tomorrow, 18 November, Sunday

    Time Temperature Precipitation Wind Pressure Humidity
    00:00 0°C° 0 mm 5 mps 773 mmHg 59%
    01:00 0°C° 0 mm 5 mps 772 mmHg 59%
    02:00 -1°C° 0 mm 5 mps 772 mmHg 59%
    03:00 -1°C° 0 mm 5 mps 772 mmHg 59%
    04:00 -1°C° 0 mm 5 mps 772 mmHg 60%
    05:00 -1°C° 0 mm 5 mps 772 mmHg 60%
    06:00 -2°C° 0 mm 5 mps 772 mmHg 61%
    07:00 -1°C° 0 mm 5 mps 772 mmHg 58%
    08:00 0°C° 0 mm 5 mps 772 mmHg 55%
    09:00 +1°C° 0 mm 5 mps 772 mmHg 52%
    10:00 +2°C° 0 mm 5 mps 772 mmHg 48%
    11:00 +3°C° 0 mm 5 mps 772 mmHg 44%
    12:00 +5°C° 0 mm 5 mps 771 mmHg 41%
    13:00 +5°C° 0 mm 5 mps 771 mmHg 43%
    14:00 +3°C° 0 mm 5 mps 771 mmHg 44%
    15:00 +4°C° 0 mm 4 mps 771 mmHg 46%
    16:00 +3°C° 0 mm 4 mps 770 mmHg 53%
    17:00 +3°C° 0 mm 4 mps 770 mmHg 60%
    18:00 +1°C° 0 mm 4 mps 770 mmHg 67%
    19:00 +1°C° 0 mm 4 mps 770 mmHg 74%
    20:00 +1°C° 0 mm 4 mps 770 mmHg 81%
    21:00 +1°C° 0 mm 5 mps 770 mmHg 88%
    22:00 +3°C° 0 mm 4 mps 770 mmHg 88%
    23:00 +3°C° 0 mm 4 mps 770 mmHg 88%

    Day after tomorrow, 19 November, Monday

    Time Temperature Precipitation Wind Pressure Humidity
    00:00 +3°C° 0 mm 4 mps 770 mmHg 87%
    01:00 +3°C° 0 mm 4 mps 769 mmHg 87%
    02:00 +3°C° 0 mm 4 mps 769 mmHg 87%
    03:00 +3°C° 0 mm 4 mps 769 mmHg 87%
    04:00 +3°C° 0 mm 4 mps 768 mmHg 85%
    05:00 +2°C° 0 mm 5 mps 768 mmHg 84%
    06:00 +3°C° 0 mm 5 mps 768 mmHg 83%
    07:00 +3°C° 0 mm 5 mps 768 mmHg 81%
    08:00 +3°C° 0 mm 6 mps 768 mmHg 78%
    09:00 +4°C° 0 mm 6 mps 768 mmHg 76%
    10:00 +4°C° 0 mm 6 mps 767 mmHg 72%
    11:00 +5°C° 0 mm 6 mps 767 mmHg 68%
    12:00 +5°C° 0 mm 7 mps 767 mmHg 64%
    13:00 +5°C° 0 mm 6 mps 766 mmHg 63%
    14:00 +4°C° 0 mm 6 mps 766 mmHg 63%
    15:00 +5°C° 0 mm 5 mps 766 mmHg 62%
    16:00 +3°C° 0 mm 5 mps 766 mmHg 66%
    17:00 +2°C° 0 mm 5 mps 765 mmHg 70%
    18:00 +1°C° 0 mm 5 mps 765 mmHg 74%
    19:00 +1°C° 0 mm 5 mps 765 mmHg 75%
    20:00 +1°C° 0 mm 5 mps 766 mmHg 76%
    21:00 +1°C° 0 mm 5 mps 766 mmHg 77%
    22:00 0°C° 0 mm 5 mps 765 mmHg 80%
    23:00 0°C° 0 mm 5 mps 765 mmHg 82%

    20 November, Tuesday

    Time Temperature Precipitation Wind Pressure Humidity
    00:00 0°C° 0 mm 5 mps 765 mmHg 84%
    01:00 0°C° 0 mm 4 mps 765 mmHg 86%
    02:00 -1°C° 0 mm 4 mps 765 mmHg 87%
    03:00 -1°C° 0 mm 4 mps 765 mmHg 89%
    04:00 -2°C° 0 mm 4 mps 764 mmHg 89%
    05:00 -2°C° 0 mm 4 mps 764 mmHg 89%
    06:00 -1°C° 0 mm 3 mps 764 mmHg 90%
    07:00 -1°C° 0 mm 4 mps 764 mmHg 85%
    08:00 0°C° 0 mm 4 mps 764 mmHg 80%
    09:00 +1°C° 0 mm 4 mps 764 mmHg 76%
    10:00 +3°C° 0 mm 4 mps 763 mmHg 74%
    11:00 +3°C° 0 mm 5 mps 763 mmHg 71%
    12:00 +5°C° 0 mm 5 mps 762 mmHg 69%
    13:00 +4°C° 0.1 mm 4 mps 762 mmHg 72%
    14:00 +4°C° 0.1 mm 4 mps 762 mmHg 75%
    15:00 +3°C° 0.1 mm 4 mps 761 mmHg 78%
    16:00 +3°C° 0 mm 4 mps 761 mmHg 81%
    17:00 +1°C° 0 mm 4 mps 761 mmHg 85%
    18:00 +1°C° 0 mm 4 mps 761 mmHg 88%
    19:00 0°C° 0 mm 4 mps 761 mmHg 89%
    20:00 +1°C° 0 mm 3 mps 761 mmHg 91%
    21:00 0°C° 0 mm 3 mps 761 mmHg 92%
    22:00 0°C° 0 mm 3 mps 761 mmHg 93%
    23:00 0°C° 0 mm 3 mps 761 mmHg 93%

    21 November, Wednesday

    Time Temperature Precipitation Wind Pressure Humidity
    00:00 -1°C° 0 mm 3 mps 760 mmHg 94%
    01:00 -1°C° 0 mm 3 mps 760 mmHg 94%
    02:00 -1°C° 0 mm 3 mps 760 mmHg 94%
    03:00 -1°C° 0 mm 3 mps 760 mmHg 94%
    04:00 -2°C° 0 mm 3 mps 760 mmHg 93%
    05:00 -2°C° 0 mm 3 mps 760 mmHg 92%
    06:00 -2°C° 0 mm 3 mps 760 mmHg 92%
    07:00 -1°C° 0 mm 3 mps 760 mmHg 86%
    08:00 -2°C° 0 mm 4 mps 760 mmHg 80%
    09:00 -1°C° 0 mm 5 mps 760 mmHg 74%
    10:00 0°C° 0 mm 5 mps 760 mmHg 70%
    11:00 +1°C° 0 mm 5 mps 760 mmHg 66%
    12:00 +2°C° 0 mm 6 mps 760 mmHg 62%
    13:00 +1°C° 0 mm 5 mps 760 mmHg 64%
    14:00 +1°C° 0 mm 4 mps 760 mmHg 66%
    15:00 +2°C° 0 mm 3 mps 759 mmHg 69%
    16:00 +1°C° 0 mm 3 mps 759 mmHg 73%
    17:00 +1°C° 0 mm 3 mps 760 mmHg 77%
    18:00 0°C° 0 mm 3 mps 760 mmHg 81%
    19:00 0°C° 0.2 mm 3 mps 760 mmHg 83%
    20:00 0°C° 0.2 mm 3 mps 760 mmHg 84%
    21:00 +1°C° 0.2 mm 3 mps 760 mmHg 86%
    22:00 +1°C° 0.4 mm 3 mps 760 mmHg 88%
    23:00 +1°C° 0.4 mm 3 mps 760 mmHg 89%

    22 November, Thursday

    Time Temperature Precipitation Wind Pressure Humidity
    00:00 0°C° 0.4 mm 4 mps 760 mmHg 91%
    01:00 0°C° 0 mm 3 mps 760 mmHg 92%
    02:00 0°C° 0 mm 3 mps 760 mmHg 93%
    03:00 -1°C° 0 mm 3 mps 760 mmHg 94%
    04:00 -1°C° 0 mm 3 mps 760 mmHg 94%
    05:00 -1°C° 0 mm 3 mps 761 mmHg 95%
    06:00 -1°C° 0 mm 2 mps 761 mmHg 95%
    07:00 +1°C° 0.1 mm 2 mps 761 mmHg 94%
    08:00 +1°C° 0.1 mm 2 mps 762 mmHg 92%
    09:00 +1°C° 0.1 mm 2 mps 762 mmHg 91%
    10:00 +2°C° 0.2 mm 2 mps 762 mmHg 89%
    11:00 +2°C° 0.2 mm 2 mps 762 mmHg 88%
    12:00 +3°C° 0.2 mm 2 mps 762 mmHg 87%
    13:00 +3°C° 0.4 mm 2 mps 762 mmHg 89%
    14:00 +3°C° 0.4 mm 2 mps 762 mmHg 92%
    15:00 +2°C° 0.4 mm 2 mps 762 mmHg 94%
    16:00 +2°C° 0.5 mm 2 mps 762 mmHg 95%
    17:00 +2°C° 0.5 mm 2 mps 762 mmHg 96%
    18:00 +2°C° 0.5 mm 2 mps 762 mmHg 97%
    19:00 +2°C° 0.3 mm 2 mps 762 mmHg 97%
    20:00 +2°C° 0.3 mm 2 mps 762 mmHg 97%
    21:00 +2°C° 0.3 mm 2 mps 762 mmHg 98%
    22:00 +3°C° 0.3 mm 1 mps 761 mmHg 98%
    23:00 +3°C° 0.3 mm 1 mps 761 mmHg 98%
    Show more